Cheboygan, MI

10:57 AM EDT on March 29, 2017 (GMT -0400)
Cheboygan

Weather History for KSLH - November, 2013

Change the Weather History Date:

Thursday, November 7, 2013

  Actual Average (KMCD) Record (KMCD)
Temperature  
Mean Temperature 38 °F -  
Max Temperature 41 °F 42 °F 61 °F (2016)
Min Temperature 34 °F 33 °F 13 °F (1991)
Degree Days  
Heating Degree Days 28    
Moisture  
Dew Point 30 °F    
Average Humidity 74    
Maximum Humidity 87    
Minimum Humidity 63    
Precipitation  
Precipitation 0.00 in - - ()
Sea Level Pressure  
Sea Level Pressure 29.99 in    
Wind  
Wind Speed 9 mph (West)    
Max Wind Speed 16 mph    
Max Gust Speed 25 mph    
Visibility 10 miles    
Events Snow    
Averages and records for this station are not official NWS values.
T = Trace of Precipitation, MM = Missing Value Source: NWS Daily Summary

Daily Weather History Graph

Daily Weather History Graph

Search for Another Location

Airport or City:

Trip Planner

Search our weather history database for the weather conditions in past years. The results will help you decide how hot, cold, wet, or windy it might be!

Date:

Astronomy

Nov. 07, 2013 Rise Set
Actual Time 7:26 AM EST 5:16 PM EST
Civil Twilight 6:55 AM EST 5:47 PM EST
Nautical Twilight 6:19 AM EST 6:23 PM EST
Astronomical Twilight 5:44 AM EST 6:57 PM EST
Moon 11:37 AM EST (11/7) 9:24 PM EST (11/7)
Length of Visible Light 10h 52m
Length of Day
9h 49m
Waxing Crescent, 22% of the Moon is Illuminated
Nov 7
Waxing Crescent
Nov 10
First Quarter
Nov 17
Full
Nov 25
Last Quarter
Dec 2
New

Hourly Weather History & Observations

Time (EST) Temp. Windchill Dew Point Humidity Pressure Visibility Wind Dir Wind Speed Gust Speed Precip Events Conditions
12:16 AM 38.3 °F 32.5 °F 30.9 °F 75% 29.94 in 10.0 mi West 8.1 mph 16.1 mph N/A   Overcast
12:36 AM 36.3 °F 28.4 °F 31.8 °F 84% 29.94 in 7.0 mi West 11.5 mph - N/A   Overcast
12:55 AM 36.7 °F 30.5 °F 31.6 °F 82% 29.95 in 10.0 mi West 8.1 mph - N/A   Mostly Cloudy
1:16 AM 36.5 °F 28.2 °F 32.0 °F 84% 29.96 in 5.0 mi West 12.7 mph 21.9 mph N/A   Overcast
1:36 AM 36.1 °F 31.4 °F 32.0 °F 85% 29.95 in 10.0 mi West 5.8 mph - N/A   Overcast
1:56 AM 36.9 °F 30.1 °F 31.6 °F 81% 29.95 in 10.0 mi West 9.2 mph - N/A   Overcast
2:16 AM 37.2 °F 31.2 °F 31.3 °F 79% 29.95 in 10.0 mi West 8.1 mph - N/A   Overcast
2:36 AM 37.4 °F 32.1 °F 31.1 °F 78% 29.96 in 10.0 mi West 6.9 mph - N/A   Overcast
2:56 AM 37.4 °F 32.1 °F 30.9 °F 77% 29.96 in 10.0 mi West 6.9 mph - N/A   Overcast
3:16 AM 37.4 °F 32.1 °F 30.7 °F 77% 29.96 in 10.0 mi West 6.9 mph - N/A   Overcast
3:36 AM 37.6 °F 31.6 °F 30.7 °F 76% 29.96 in 10.0 mi West 8.1 mph - N/A   Mostly Cloudy
3:56 AM 37.6 °F 31.0 °F 30.4 °F 75% 29.95 in 10.0 mi West 9.2 mph - N/A   Overcast
4:16 AM 37.8 °F 31.3 °F 30.7 °F 76% 29.96 in 10.0 mi WNW 9.2 mph - N/A   Overcast
4:35 AM 37.9 °F 30.9 °F 30.7 °F 75% 29.96 in 10.0 mi West 10.4 mph - N/A   Mostly Cloudy
4:56 AM 37.8 °F 31.8 °F 30.6 °F 75% 29.96 in 10.0 mi West 8.1 mph - N/A   Mostly Cloudy
5:16 AM 36.7 °F 31.2 °F 31.5 °F 81% 29.97 in 7.0 mi West 6.9 mph 10.4 mph N/A Snow Light Snow
5:36 AM 36.9 °F 30.7 °F 31.5 °F 81% 29.97 in 10.0 mi West 8.1 mph - N/A   Mostly Cloudy
5:56 AM 37.4 °F 30.3 °F 30.9 °F 77% 29.97 in 10.0 mi WNW 10.4 mph - N/A   Mostly Cloudy
6:16 AM 37.8 °F 31.3 °F 30.6 °F 75% 29.97 in 10.0 mi West 9.2 mph 16.1 mph N/A   Mostly Cloudy
6:36 AM 37.6 °F 31.6 °F 30.9 °F 77% 29.98 in 7.0 mi West 8.1 mph - N/A Snow Light Snow
6:56 AM 37.4 °F 31.4 °F 30.9 °F 77% 29.98 in 10.0 mi West 8.1 mph - N/A   Overcast
7:16 AM 37.4 °F 32.1 °F 30.7 °F 77% 29.98 in 10.0 mi West 6.9 mph - N/A   Overcast
7:36 AM 37.6 °F 31.6 °F 30.6 °F 76% 29.98 in 10.0 mi WNW 8.1 mph - N/A   Overcast
7:55 AM 37.4 °F 31.4 °F 30.9 °F 77% 29.98 in 10.0 mi WNW 8.1 mph - N/A   Overcast
8:16 AM 37.8 °F 31.8 °F 30.6 °F 75% 29.99 in 10.0 mi WNW 8.1 mph - N/A   Overcast
8:36 AM 38.1 °F 31.7 °F 30.2 °F 73% 29.99 in 10.0 mi WNW 9.2 mph - N/A   Mostly Cloudy
8:56 AM 38.7 °F 32.9 °F 29.1 °F 69% 30.00 in 10.0 mi West 8.1 mph - N/A   Overcast
9:16 AM 39.2 °F 35.0 °F 28.9 °F 67% 30.00 in 10.0 mi West 5.8 mph - N/A   Mostly Cloudy
9:36 AM 39.4 °F 31.8 °F 29.3 °F 67% 30.00 in 10.0 mi WNW 12.7 mph 17.3 mph N/A   Mostly Cloudy
9:56 AM 39.4 °F 32.3 °F 29.5 °F 68% 30.00 in 10.0 mi WNW 11.5 mph 18.4 mph N/A   Mostly Cloudy
10:16 AM 39.2 °F 30.8 °F 29.7 °F 69% 30.00 in 10.0 mi WNW 15.0 mph - N/A   Mostly Cloudy
10:35 AM 37.8 °F 30.2 °F 31.6 °F 79% 30.01 in 10.0 mi West 11.5 mph 17.3 mph N/A   Mostly Cloudy
10:56 AM 38.8 °F 31.2 °F 30.9 °F 73% 30.01 in 10.0 mi WNW 12.7 mph - N/A   Scattered Clouds
11:16 AM 38.1 °F 31.2 °F 31.8 °F 78% 30.01 in 7.0 mi West 10.4 mph 20.7 mph N/A   Scattered Clouds
11:36 AM 40.5 °F 32.1 °F 31.1 °F 69% 30.01 in 10.0 mi WNW 16.1 mph 20.7 mph N/A   Scattered Clouds
11:56 AM 39.7 °F 32.3 °F 30.7 °F 70% 30.01 in 10.0 mi West 12.7 mph 20.7 mph N/A   Scattered Clouds
12:16 PM 41.5 °F 35.9 °F 31.5 °F 67% 30.01 in 10.0 mi WNW 9.2 mph - N/A   Scattered Clouds
12:36 PM 39.9 °F 32.5 °F 28.6 °F 64% 30.00 in 10.0 mi WNW 12.7 mph 19.6 mph N/A   Mostly Cloudy
12:56 PM 40.1 °F 33.6 °F 29.1 °F 65% 29.99 in 10.0 mi West 10.4 mph 19.6 mph N/A   Mostly Cloudy
1:16 PM 40.5 °F 34.1 °F 29.1 °F 64% 29.99 in 10.0 mi West 10.4 mph - N/A   Mostly Cloudy
1:36 PM 38.1 °F 29.8 °F 30.9 °F 75% 30.00 in 3.0 mi WNW 13.8 mph 25.3 mph N/A Snow Light Snow
1:56 PM 37.8 °F 29.8 °F 31.8 °F 79% 29.99 in 10.0 mi WNW 12.7 mph 18.4 mph N/A   Mostly Cloudy
2:15 PM 39.7 °F 33.7 °F 31.8 °F 73% 29.99 in 10.0 mi West 9.2 mph 16.1 mph N/A   Scattered Clouds
2:36 PM 39.4 °F 32.3 °F 30.0 °F 69% 29.99 in 10.0 mi West 11.5 mph - N/A   Mostly Cloudy
2:56 PM 39.9 °F 33.4 °F 29.5 °F 66% 29.98 in 10.0 mi West 10.4 mph 16.1 mph N/A   Scattered Clouds
3:16 PM 39.6 °F 32.1 °F 28.6 °F 65% 29.99 in 10.0 mi West 12.7 mph 16.1 mph N/A   Scattered Clouds
3:36 PM 39.6 °F 33.5 °F 28.0 °F 63% 29.98 in 10.0 mi West 9.2 mph 18.4 mph N/A   Scattered Clouds
3:56 PM 39.7 °F 33.2 °F 28.6 °F 64% 29.98 in 10.0 mi West 10.4 mph 16.1 mph N/A   Scattered Clouds
4:16 PM 39.6 °F 33.5 °F 28.0 °F 63% 29.98 in 10.0 mi West 9.2 mph - N/A   Mostly Cloudy
4:36 PM 39.0 °F 32.3 °F 28.9 °F 67% 29.99 in 10.0 mi WNW 10.4 mph 18.4 mph N/A   Mostly Cloudy
4:55 PM 38.5 °F 31.1 °F 29.1 °F 69% 29.99 in 10.0 mi West 11.5 mph - N/A   Mostly Cloudy
5:16 PM 38.3 °F 31.9 °F 28.8 °F 69% 29.99 in 10.0 mi WNW 9.2 mph 19.6 mph N/A   Mostly Cloudy
5:36 PM 37.9 °F 30.0 °F 28.8 °F 70% 30.00 in 10.0 mi WNW 12.7 mph 18.4 mph N/A   Scattered Clouds
5:55 PM 38.1 °F 30.2 °F 28.9 °F 70% 30.01 in 10.0 mi WNW 12.7 mph 17.3 mph N/A   Mostly Cloudy
6:16 PM 37.6 °F 30.0 °F 29.3 °F 72% 30.01 in 10.0 mi WNW 11.5 mph 18.4 mph N/A   Mostly Cloudy
6:36 PM 37.4 °F 30.8 °F 30.0 °F 75% 30.01 in 10.0 mi NW 9.2 mph - N/A   Mostly Cloudy
6:56 PM 35.2 °F 28.8 °F 31.1 °F 85% 30.02 in 7.0 mi WNW 8.1 mph - N/A   Mostly Cloudy
7:16 PM 35.1 °F 28.6 °F 31.5 °F 87% 30.02 in 10.0 mi West 8.1 mph - N/A   Mostly Cloudy
7:36 PM 34.9 °F 29.9 °F 31.3 °F 87% 30.03 in 10.0 mi West 5.8 mph - N/A   Mostly Cloudy
7:56 PM 35.4 °F 28.4 °F 30.2 °F 81% 30.02 in 10.0 mi WNW 9.2 mph - N/A   Mostly Cloudy
8:16 PM 35.6 °F 28.6 °F 29.3 °F 78% 30.02 in 10.0 mi WNW 9.2 mph - N/A   Scattered Clouds
8:36 PM 35.6 °F 29.2 °F 28.9 °F 77% 30.02 in 10.0 mi WNW 8.1 mph - N/A   Scattered Clouds
8:56 PM 36.5 °F 29.2 °F 29.1 °F 75% 30.02 in 7.0 mi WNW 10.4 mph 20.7 mph N/A Snow Light Snow
9:16 PM 36.7 °F 30.5 °F 28.4 °F 72% 30.03 in 10.0 mi WNW 8.1 mph - N/A   Overcast
9:36 PM 37.0 °F 29.8 °F 27.7 °F 69% 30.03 in 10.0 mi WNW 10.4 mph - N/A   Overcast
9:56 PM 36.9 °F 29.6 °F 27.7 °F 69% 30.03 in 10.0 mi NW 10.4 mph - N/A   Overcast
10:16 PM 37.0 °F 30.4 °F 27.7 °F 69% 30.03 in 10.0 mi WNW 9.2 mph - N/A   Overcast
10:36 PM 36.7 °F 32.0 °F 29.1 °F 74% 30.03 in 10.0 mi WSW 5.8 mph - N/A   Overcast
10:56 PM 35.8 °F 30.9 °F 29.8 °F 79% 30.03 in 10.0 mi West 5.8 mph - N/A   Overcast
11:16 PM 36.9 °F 30.7 °F 29.1 °F 74% 30.03 in 10.0 mi WNW 8.1 mph - N/A   Overcast
11:36 PM 36.9 °F 30.1 °F 28.9 °F 73% 30.03 in 10.0 mi WNW 9.2 mph - N/A   Mostly Cloudy
11:55 PM 36.9 °F 29.1 °F 29.3 °F 74% 30.03 in 10.0 mi NW 11.5 mph 20.7 mph N/A   Mostly Cloudy